Weather History for Flint, MI

Change the Weather History Date:

Sunday, May 12, 2013

  Actual Average Record
Temperature  
Mean Temperature 40 °F 56 °F  
Max Temperature 49 °F 67 °F 88 °F (1991)
Min Temperature 31 °F 44 °F 29 °F (1946)
Degree Days  
Heating Degree Days 25 10  
Month to date heating degree days 60 139  
Since 1 July heating degree days 6314 6746  
Cooling Degree Days 0 1  
Month to date cooling degree days 12 4  
Year to date cooling degree days 12 8  
Moisture  
Dew Point 28 °F    
Average Humidity 65    
Maximum Humidity 85    
Minimum Humidity 45    
Precipitation  
Precipitation T in 0.10 in 1.19 in (2014)
Month to date precipitation 0.40 1.18  
Year to date precipitation 13.07 9.09  
Snow  
Snow 0.00 in 0.00 in 0.00 in ()
Month to date snowfall 0.0 0.0  
Since 1 July snowfall 43.8 47.4  
Snow Depth 0.00 in    
Sea Level Pressure  
Sea Level Pressure 29.97 in    
Wind  
Wind Speed 16 mph (WNW)    
Max Wind Speed 31 mph    
Max Gust Speed 43 mph    
Visibility 10 miles    
Events      
T = Trace of Precipitation, MM = Missing Value Source: NWS Daily Summary

Daily Weather History Graph

Daily Weather History Graph

Search for Another Location

Airport:

Trip Planner

Search our weather history database for the weather conditions in past years. The results will help you decide how hot, cold, wet, or windy it might be!

Date:

Astronomy

May. 12, 2013 Rise Set
Actual Time 6:14 AM EDT 8:48 PM EDT
Civil Twilight 5:42 AM EDT 9:20 PM EDT
Nautical Twilight 5:02 AM EDT 10:01 PM EDT
Astronomical Twilight 4:16 AM EDT 10:47 PM EDT
Moon 8:08 AM EDT (5/12) 11:15 PM EDT (5/12)
Length of Visible Light 15h 38m
Length of Day
14h 33m
Waxing Crescent, 6% of the Moon is Illuminated
May 12
Waxing Crescent
May 18
First Quarter
May 25
Full
May 31
Last Quarter
Jun 8
New

Hourly Weather History & Observations

Time (EDT) Temp. Windchill Dew Point Humidity Pressure Visibility Wind Dir Wind Speed Gust Speed Precip Events Conditions
12:53 AM 39.0 °F 32.3 °F 33.1 °F 79% 29.89 in 10.0 mi WSW 10.4 mph - N/A   Clear
1:53 AM 37.9 °F 32.1 °F 33.1 °F 83% 29.88 in 10.0 mi WSW 8.1 mph - N/A   Clear
2:53 AM 39.0 °F 31.8 °F 32.0 °F 76% 29.87 in 10.0 mi West 11.5 mph - N/A   Clear
3:53 AM 37.9 °F 29.2 °F 30.9 °F 76% 29.87 in 10.0 mi West 15.0 mph 20.7 mph N/A   Clear
4:53 AM 37.9 °F 30.5 °F 30.0 °F 73% 29.86 in 10.0 mi West 11.5 mph - N/A   Partly Cloudy
5:53 AM 37.0 °F 28.1 °F 30.0 °F 76% 29.87 in 10.0 mi West 15.0 mph - N/A   Clear
6:53 AM 37.9 °F 28.5 °F 30.0 °F 73% 29.89 in 10.0 mi West 17.3 mph 26.5 mph N/A   Overcast
7:53 AM 39.0 °F 28.8 °F 28.9 °F 67% 29.90 in 10.0 mi West 21.9 mph 29.9 mph N/A   Partly Cloudy
8:53 AM 41.0 °F 33.1 °F 28.9 °F 62% 29.92 in 10.0 mi West 15.0 mph 28.8 mph N/A   Overcast
9:53 AM 42.1 °F 32.6 °F 28.9 °F 60% 29.94 in 10.0 mi West 23.0 mph 29.9 mph N/A   Overcast
10:53 AM 42.8 °F 34.3 °F 30.2 °F 61% 29.92 in 10.0 mi West 19.6 mph 27.6 mph N/A   Overcast
11:53 AM 46.9 °F - 30.0 °F 52% 29.94 in 10.0 mi WNW 25.3 mph 31.1 mph N/A   Mostly Cloudy
12:53 PM 48.9 °F - 30.0 °F 48% 29.94 in 10.0 mi WNW 17.3 mph 27.6 mph 0.00 in   Mostly Cloudy
1:53 PM 46.9 °F - 30.0 °F 52% 29.96 in 10.0 mi NW 21.9 mph 31.1 mph 0.00 in   Mostly Cloudy
2:53 PM 46.9 °F - 28.9 °F 50% 29.98 in 10.0 mi WNW 27.6 mph 34.5 mph 0.00 in   Overcast
3:53 PM 44.1 °F 35.4 °F 28.0 °F 53% 30.01 in 10.0 mi NW 21.9 mph 29.9 mph N/A   Overcast
4:53 PM 43.0 °F 33.3 °F 25.0 °F 49% 30.03 in 10.0 mi WNW 25.3 mph 32.2 mph N/A   Overcast
5:53 PM 43.0 °F 34.5 °F 25.0 °F 49% 30.04 in 10.0 mi WNW 19.6 mph 28.8 mph N/A   Overcast
6:53 PM 42.1 °F 33.9 °F 24.1 °F 49% 30.06 in 10.0 mi WNW 17.3 mph 29.9 mph N/A   Overcast
7:53 PM 42.1 °F 34.2 °F 23.0 °F 47% 30.07 in 10.0 mi NW 16.1 mph 24.2 mph N/A   Overcast
8:53 PM 39.0 °F 31.8 °F 23.0 °F 53% 30.08 in 10.0 mi NW 11.5 mph - N/A   Scattered Clouds
9:53 PM 37.0 °F 31.6 °F 24.1 °F 59% 30.10 in 10.0 mi NW 6.9 mph - N/A   Clear
10:53 PM 34.0 °F 29.8 °F 25.0 °F 70% 30.11 in 10.0 mi WNW 4.6 mph - N/A   Clear
11:53 PM 32.0 °F 26.4 °F 24.1 °F 73% 30.11 in 10.0 mi West 5.8 mph - N/A   Clear